Tracking 18852 objects as of 23-Nov-2017
HD Live streaming from Space Station
objects crossing your sky now

FENGYUN 1C DEB

Track FENGYUN 1C DEB now!
10-day predictions


NORAD ID: 30640
Int'l Code: 1999-025ANX
Perigee: 822.0 km
Apogee: 957.6 km
Inclination: 99.2 °
Period: 102.6 minutes
Semi major axis: 7260 km
RCS: 0.018 m2 (small)
Launch date: May 10, 1999
Source: People's Republic of China (PRC)
Launch site: Taiyaun Space Center, China (TSC)

Note: This is SATELLITE DEBRIS
aabbcc
Your satellite tracking list
Your tracking list is empty




NASA's NSSDC Master Catalog

Two Line Element Set (TLE):
1 30640U 99025ANX 17326.54827962 +.00000671 +00000-0 +44310-3 0  9999
2 30640 099.2197 317.7888 0093363 355.2164 131.9977 14.03213893550881
Source of the keplerian elements: AFSPC